Precipitable_Water
0.94 0.96 0.96 1.02 1.04 1.12 1.19 1.22 1.25 1.31 1.34 1.37 1.37 1.35 1.36 1.37 1.40 1.36 1.44 1.48 1.59 1.65 1.51 1.40 1.28 1.28 1.37 1.43 1.31 1.40 1.47 1.41 1.45 1.58 1.47 1.44 1.59 1.62 1.59 1.53 1.51 1.60 1.73 1.75 1.69 1.67 1.62 1.70 1.56 1.74 1.80 1.70 1.51 1.32 1.23 1.08 1.02 0.93 0.81 0.82 0.82 0.83 0.88 1.05 1.04 1.02 0.96 0.91 1.07 1.03 1.04 1.11 1.16 1.22 1.26 1.28 1.30 1.32 1.29 1.21 1.19 1.20 1.23 1.20 1.24
1.02 0.98 0.99 1.01 1.03 1.08 1.17 1.18 1.17 1.16 1.27 1.35 1.35 1.37 1.38 1.41 1.42 1.42 1.44 1.44 1.49 1.48 1.50 1.41 1.40 1.38 1.35 1.45 1.40 1.45 1.49 1.36 1.41 1.42 1.46 1.61 1.72 1.60 1.62 1.62 1.70 1.72 1.79 1.75 1.63 1.72 1.67 1.53 1.63 1.69 1.68 1.56 1.35 1.19 1.13 1.10 0.98 0.87 0.90 0.88 1.02 0.88 0.78 0.95 0.96 0.90 0.87 1.01 0.93 0.85 0.89 0.99 1.17 1.17 1.14 1.18 1.25 1.28 1.22 1.16 1.13 1.05 1.03 1.06 1.10
1.03 1.01 1.02 1.02 1.05 1.07 1.12 1.16 1.17 1.17 1.22 1.27 1.36 1.39 1.38 1.40 1.43 1.41 1.41 1.42 1.46 1.47 1.52 1.45 1.49 1.48 1.42 1.48 1.47 1.49 1.51 1.53 1.59 1.65 1.64 1.53 1.57 1.67 1.80 1.77 1.75 1.75 1.65 1.62 1.70 1.67 1.49 1.45 1.46 1.58 1.66 1.45 1.13 1.08 1.09 1.03 0.98 0.87 0.89 0.87 0.87 1.01 0.95 0.95 0.95 1.01 0.83 0.93 0.92 0.64 0.76 0.74 1.10 1.09 1.12 1.21 1.25 1.22 1.20 1.11 1.08 1.01 0.99 1.02 1.06
1.00 1.00 0.99 1.03 1.06 1.09 1.11 1.11 1.14 1.17 1.19 1.22 1.29 1.34 1.41 1.40 1.44 1.36 1.35 1.39 1.38 1.47 1.46 1.55 1.64 1.60 1.46 1.60 1.63 1.62 1.54 1.55 1.69 1.74 1.58 1.70 1.73 1.74 1.82 1.46 1.39 1.45 1.53 1.64 1.57 1.45 1.42 1.47 1.53 1.40 1.27 1.17 1.03 0.99 0.97 0.93 0.95 0.93 0.96 0.95 0.99 0.89 0.99 1.04 1.16 1.11 0.92 0.84 0.69 0.87 0.80 0.61 0.55 1.01 1.07 1.18 1.29 1.29 1.21 1.13 1.05 0.99 0.98 0.99 0.99
1.02 1.01 0.99 0.97 0.99 1.03 1.06 1.10 1.16 1.14 1.16 1.20 1.26 1.31 1.38 1.40 1.44 1.45 1.45 1.43 1.41 1.56 1.44 1.46 1.71 1.55 1.48 1.64 1.58 1.69 1.64 1.59 1.56 1.51 1.45 1.60 1.70 1.71 1.65 1.48 1.47 1.48 1.64 1.58 1.44 1.45 1.54 1.52 1.39 1.20 1.04 1.04 1.06 0.98 0.94 0.92 0.89 1.01 1.08 1.07 1.05 0.98 0.89 0.98 1.12 1.10 1.05 1.06 0.83 0.61 0.90 0.86 0.87 0.97 0.90 1.06 1.25 1.27 1.15 1.11 1.04 0.97 0.94 0.94 0.96
1.08 1.02 0.97 0.93 0.94 1.01 1.09 1.12 1.12 1.12 1.15 1.21 1.28 1.38 1.39 1.45 1.52 1.48 1.46 1.44 1.44 1.48 1.45 1.51 1.49 1.39 1.42 1.40 1.33 1.27 1.25 1.27 1.23 1.18 1.19 1.29 1.29 1.24 1.65 1.67 1.49 1.46 1.46 1.45 1.50 1.37 1.46 1.37 1.17 0.99 1.07 1.01 0.99 0.98 0.94 0.83 0.95 1.07 1.01 0.98 0.99 1.04 0.93 0.93 0.89 1.06 1.00 1.00 0.91 0.80 0.73 0.71 0.91 1.03 0.97 0.97 1.06 1.08 1.10 1.06 1.02 0.99 1.02 0.96 0.93
1.17 1.14 1.08 0.95 0.99 1.02 1.07 1.11 1.12 1.11 1.16 1.25 1.30 1.34 1.38 1.46 1.46 1.49 1.47 1.37 1.33 1.39 1.42 1.48 1.42 1.50 1.46 1.17 1.11 1.09 1.04 1.10 1.14 1.16 1.16 1.40 1.47 1.44 1.50 1.52 1.52 1.43 1.43 1.43 1.47 1.46 1.35 1.17 1.15 1.13 1.05 1.10 1.09 0.96 0.84 0.87 1.07 1.10 1.00 0.97 1.04 1.09 0.96 0.83 0.80 0.80 0.98 0.98 0.96 0.95 0.99 1.06 1.06 0.92 0.91 0.89 0.85 0.96 0.99 0.96 0.99 1.06 1.02 0.98 0.96
1.14 1.12 1.13 1.09 1.03 1.04 1.06 1.12 1.16 1.14 1.18 1.24 1.25 1.28 1.32 1.39 1.45 1.43 1.35 1.27 1.20 1.26 1.32 1.39 1.44 1.45 1.33 1.18 1.25 1.21 1.17 1.18 1.17 1.17 1.33 1.49 1.53 1.41 1.38 1.45 1.43 1.36 1.40 1.42 1.36 1.26 1.22 1.26 1.26 1.13 1.06 1.11 1.13 0.98 1.04 1.18 1.13 1.05 1.02 0.99 0.99 1.01 1.02 0.93 0.94 0.99 0.78 1.06 1.17 1.07 1.13 1.10 1.01 1.00 0.95 0.77 0.72 0.71 0.84 1.01 1.04 1.07 1.02 1.03 0.99
1.16 1.14 1.12 1.14 1.10 1.08 1.12 1.14 1.16 1.20 1.23 1.20 1.17 1.22 1.31 1.38 1.39 1.43 1.44 1.43 1.35 1.25 1.26 1.31 1.43 1.43 1.31 1.28 1.25 1.21 1.25 1.21 1.22 1.35 1.37 1.43 1.33 1.32 1.36 1.33 1.34 1.37 1.41 1.42 1.41 1.29 1.27 1.29 1.27 1.16 1.07 1.12 1.14 1.13 1.10 1.01 0.87 0.87 1.10 1.10 1.04 1.02 1.01 0.99 0.91 0.93 0.95 1.02 1.13 1.10 1.02 1.01 0.99 0.97 0.90 0.88 0.76 0.75 0.78 0.82 0.87 1.01 1.05 1.06 1.06
1.11 1.17 1.18 1.20 1.20 1.17 1.15 1.19 1.21 1.21 1.23 1.21 1.19 1.24 1.27 1.28 1.30 1.36 1.38 1.40 1.37 1.28 1.26 1.32 1.38 1.40 1.35 1.37 1.22 1.17 1.21 1.25 1.32 1.34 1.33 1.38 1.26 1.30 1.35 1.30 1.30 1.34 1.37 1.42 1.41 1.37 1.38 1.34 1.23 1.17 1.11 1.15 1.17 1.12 1.08 0.93 0.80 0.80 0.93 0.96 0.99 0.96 1.01 0.98 0.97 1.03 1.00 1.03 1.04 1.08 0.98 0.98 0.90 0.91 0.99 1.01 1.01 0.95 0.79 0.77 0.86 0.87 0.85 0.95 1.02
1.10 1.15 1.20 1.22 1.26 1.23 1.22 1.18 1.23 1.26 1.22 1.19 1.20 1.25 1.25 1.20 1.18 1.22 1.29 1.36 1.37 1.30 1.24 1.27 1.32 1.37 1.34 1.30 1.28 1.26 1.29 1.28 1.24 1.27 1.37 1.31 1.23 1.26 1.32 1.32 1.29 1.31 1.38 1.42 1.48 1.48 1.36 1.31 1.25 1.20 1.21 1.22 1.20 1.15 1.03 0.93 0.92 0.85 0.88 0.88 0.88 0.90 0.99 0.99 0.93 0.91 0.92 0.99 1.04 1.01 0.92 0.90 0.89 0.88 0.87 0.89 0.84 0.79 0.79 0.80 0.83 0.86 0.83 0.77 0.94
1.12 1.13 1.15 1.21 1.24 1.23 1.20 1.15 1.20 1.23 1.22 1.19 1.20 1.28 1.25 1.21 1.18 1.14 1.18 1.26 1.33 1.33 1.28 1.31 1.30 1.32 1.33 1.33 1.31 1.32 1.34 1.38 1.31 1.26 1.29 1.31 1.33 1.32 1.38 1.37 1.33 1.34 1.39 1.39 1.39 1.36 1.35 1.33 1.30 1.27 1.24 1.19 1.18 1.14 1.06 0.96 0.97 0.94 0.90 0.87 0.84 0.86 0.90 0.89 0.94 0.98 0.94 1.04 1.07 1.07 1.04 1.04 1.06 1.05 1.05 1.00 0.95 0.93 0.90 0.85 0.82 0.86 0.88 0.90 0.95
1.12 1.10 1.13 1.16 1.18 1.18 1.15 1.13 1.16 1.20 1.22 1.22 1.22 1.25 1.24 1.23 1.22 1.19 1.20 1.29 1.34 1.40 1.35 1.34 1.31 1.27 1.30 1.34 1.37 1.39 1.38 1.46 1.42 1.35 1.35 1.35 1.35 1.32 1.35 1.34 1.39 1.36 1.35 1.32 1.30 1.28 1.35 1.34 1.31 1.25 1.22 1.21 1.20 1.13 1.07 1.02 1.01 0.97 0.95 0.86 0.86 0.84 0.87 0.85 0.87 0.92 0.99 1.01 1.08 1.12 1.10 1.07 1.05 1.12 1.08 1.04 1.04 1.01 0.95 0.84 0.88 0.94 0.88 0.91 0.98
1.09 1.10 1.08 1.09 1.14 1.19 1.19 1.14 1.13 1.15 1.19 1.22 1.23 1.22 1.24 1.23 1.24 1.20 1.22 1.32 1.39 1.42 1.40 1.36 1.32 1.29 1.32 1.41 1.44 1.45 1.43 1.45 1.46 1.40 1.36 1.40 1.40 1.36 1.37 1.38 1.39 1.37 1.36 1.27 1.27 1.32 1.35 1.37 1.34 1.27 1.24 1.25 1.18 1.14 1.12 1.09 1.04 1.00 0.98 0.92 0.93 0.96 0.99 0.99 0.95 0.97 1.00 1.01 1.02 1.00 1.03 1.06 1.07 1.10 1.13 1.12 1.07 1.01 0.93 0.87 0.87 0.90 0.91 0.88 0.97
1.08 1.09 1.05 1.00 1.07 1.15 1.16 1.14 1.13 1.14 1.12 1.16 1.18 1.18 1.22 1.24 1.24 1.22 1.22 1.29 1.36 1.43 1.44 1.38 1.34 1.31 1.35 1.43 1.47 1.50 1.47 1.44 1.43 1.46 1.45 1.46 1.47 1.45 1.45 1.46 1.41 1.40 1.39 1.40 1.41 1.39 1.38 1.38 1.35 1.27 1.28 1.25 1.20 1.16 1.15 1.15 1.10 1.02 1.01 0.99 1.02 1.08 1.08 1.06 1.04 1.01 1.03 1.05 1.07 1.08 1.06 1.06 1.05 1.09 1.09 1.08 1.08 1.04 1.00 0.95 0.89 0.77 0.78 0.84 0.84
1.03 1.05 1.04 0.97 1.02 1.08 1.11 1.11 1.11 1.12 1.13 1.15 1.17 1.18 1.17 1.23 1.28 1.25 1.24 1.26 1.32 1.39 1.40 1.36 1.35 1.38 1.41 1.41 1.46 1.51 1.51 1.48 1.45 1.51 1.53 1.54 1.55 1.48 1.45 1.48 1.45 1.45 1.47 1.45 1.42 1.41 1.36 1.33 1.32 1.30 1.32 1.31 1.30 1.26 1.23 1.21 1.18 1.09 1.06 1.07 1.04 1.09 1.12 1.14 1.14 1.11 1.09 1.09 1.06 1.09 1.11 1.08 1.12 1.13 1.13 1.12 1.10 1.09 1.06 1.04 0.98 0.89 0.78 0.69 0.74
0.98 1.00 0.99 0.99 0.98 1.02 1.03 1.06 1.07 1.08 1.11 1.13 1.18 1.22 1.19 1.22 1.25 1.24 1.22 1.22 1.25 1.32 1.37 1.38 1.41 1.39 1.38 1.41 1.49 1.51 1.49 1.47 1.44 1.46 1.48 1.52 1.54 1.49 1.41 1.48 1.56 1.54 1.45 1.44 1.35 1.34 1.31 1.29 1.27 1.32 1.37 1.38 1.35 1.31 1.28 1.25 1.23 1.15 1.10 1.09 1.06 1.12 1.15 1.18 1.19 1.16 1.15 1.13 1.12 1.14 1.14 1.17 1.17 1.15 1.13 1.12 1.12 1.13 1.14 1.09 1.07 0.97 0.90 0.75 0.66
0.96 1.02 1.05 1.03 0.97 0.97 0.99 1.03 1.07 1.07 1.10 1.14 1.18 1.28 1.29 1.26 1.26 1.22 1.20 1.16 1.18 1.23 1.29 1.34 1.37 1.37 1.38 1.42 1.48 1.51 1.51 1.52 1.48 1.49 1.53 1.50 1.51 1.48 1.42 1.45 1.52 1.55 1.50 1.40 1.34 1.32 1.28 1.25 1.27 1.30 1.36 1.41 1.37 1.36 1.34 1.30 1.26 1.20 1.15 1.10 1.11 1.12 1.12 1.17 1.19 1.16 1.15 1.14 1.11 1.09 1.09 1.07 1.10 1.09 1.06 1.13 1.14 1.15 1.18 1.12 1.05 1.02 0.99 0.84 0.74
0.91 0.95 1.03 1.05 1.00 0.97 0.97 0.99 1.05 1.09 1.11 1.16 1.23 1.30 1.32 1.29 1.27 1.22 1.19 1.19 1.19 1.21 1.27 1.33 1.34 1.33 1.37 1.42 1.46 1.51 1.53 1.58 1.59 1.58 1.60 1.57 1.55 1.54 1.46 1.50 1.60 1.55 1.44 1.39 1.35 1.34 1.30 1.28 1.29 1.34 1.39 1.40 1.39 1.36 1.37 1.35 1.32 1.25 1.20 1.15 1.14 1.12 1.07 1.04 1.06 1.05 1.07 1.09 1.09 1.06 1.06 1.04 1.05 1.04 1.10 1.13 1.12 1.11 1.14 1.10 1.04 1.05 1.00 0.95 0.88
0.86 0.93 1.00 1.04 1.04 1.00 0.98 0.98 1.03 1.06 1.10 1.15 1.23 1.28 1.27 1.30 1.29 1.24 1.24 1.25 1.21 1.22 1.29 1.27 1.31 1.35 1.38 1.44 1.50 1.54 1.58 1.59 1.58 1.60 1.61 1.60 1.54 1.50 1.48 1.56 1.61 1.58 1.48 1.44 1.41 1.37 1.38 1.35 1.36 1.39 1.41 1.40 1.39 1.41 1.41 1.38 1.36 1.32 1.24 1.18 1.19 1.18 1.12 1.08 1.10 1.13 1.12 1.10 1.06 1.04 1.03 1.01 1.07 1.12 1.14 1.11 1.16 1.18 1.12 1.08 1.05 1.03 1.07 1.06 1.01
0.85 0.90 0.94 1.00 1.02 1.03 1.02 1.04 1.05 1.11 1.17 1.18 1.24 1.27 1.27 1.31 1.31 1.28 1.23 1.24 1.21 1.22 1.25 1.25 1.30 1.34 1.37 1.40 1.43 1.52 1.55 1.61 1.55 1.54 1.53 1.59 1.54 1.45 1.48 1.61 1.69 1.61 1.56 1.48 1.47 1.42 1.44 1.44 1.46 1.46 1.44 1.41 1.38 1.36 1.38 1.35 1.32 1.30 1.29 1.23 1.17 1.16 1.14 1.12 1.12 1.07 1.09 1.09 1.06 1.03 1.04 1.04 1.09 1.14 1.16 1.10 1.06 1.06 1.10 1.12 1.16 1.14 1.09 1.11 1.08
0.81 0.86 0.91 0.94 1.01 1.04 1.06 1.10 1.10 1.11 1.14 1.16 1.20 1.27 1.28 1.27 1.29 1.32 1.29 1.27 1.26 1.26 1.25 1.30 1.32 1.34 1.36 1.39 1.43 1.50 1.49 1.50 1.48 1.53 1.54 1.53 1.44 1.42 1.50 1.63 1.70 1.73 1.64 1.53 1.46 1.45 1.48 1.52 1.51 1.47 1.44 1.43 1.41 1.37 1.32 1.33 1.28 1.27 1.26 1.27 1.23 1.18 1.14 1.10 1.08 1.06 1.11 1.13 1.10 1.03 1.03 1.07 1.11 1.19 1.19 1.05 1.05 1.08 1.07 1.06 1.05 1.04 1.05 1.09 1.13
0.75 0.80 0.87 0.92 0.98 1.06 1.09 1.11 1.10 1.07 1.12 1.16 1.19 1.22 1.25 1.27 1.31 1.38 1.31 1.27 1.30 1.36 1.39 1.38 1.35 1.34 1.35 1.40 1.43 1.43 1.45 1.48 1.49 1.52 1.48 1.43 1.43 1.44 1.53 1.61 1.83 1.77 1.67 1.52 1.42 1.44 1.49 1.52 1.53 1.52 1.50 1.43 1.40 1.34 1.34 1.30 1.32 1.32 1.28 1.23 1.20 1.22 1.23 1.18 1.13 1.11 1.11 1.12 1.08 1.06 1.06 1.14 1.17 1.09 1.07 1.08 1.09 1.06 1.10 1.03 0.97 0.98 0.95 1.00 1.05
0.77 0.80 0.86 0.92 0.99 1.07 1.14 1.16 1.14 1.11 1.13 1.16 1.20 1.22 1.26 1.31 1.34 1.38 1.38 1.36 1.37 1.42 1.51 1.47 1.40 1.36 1.39 1.43 1.47 1.49 1.48 1.48 1.44 1.47 1.48 1.46 1.44 1.47 1.52 1.62 1.77 1.78 1.70 1.52 1.45 1.47 1.49 1.50 1.47 1.49 1.49 1.45 1.42 1.39 1.34 1.33 1.32 1.32 1.27 1.22 1.19 1.20 1.22 1.20 1.13 1.08 1.07 1.07 1.04 1.04 1.10 1.11 1.08 1.02 1.05 1.06 1.11 1.17 1.13 1.08 1.05 1.03 0.99 1.03 1.03
0.72 0.77 0.84 0.90 0.96 1.02 1.07 1.12 1.14 1.14 1.12 1.12 1.18 1.23 1.25 1.29 1.34 1.36 1.41 1.46 1.45 1.45 1.52 1.60 1.53 1.46 1.50 1.52 1.54 1.54 1.51 1.56 1.62 1.62 1.53 1.38 1.42 1.53 1.59 1.53 1.53 1.51 1.60 1.54 1.37 1.35 1.31 1.35 1.38 1.42 1.47 1.45 1.41 1.39 1.36 1.35 1.35 1.31 1.27 1.24 1.25 1.24 1.21 1.19 1.16 1.12 1.09 1.08 1.06 1.07 1.10 1.10 1.08 1.02 1.04 1.08 1.12 1.13 1.11 1.11 1.08 1.06 1.03 1.03 1.00
0.72 0.80 0.87 0.90 0.97 1.06 1.10 1.09 1.12 1.13 1.11 1.10 1.13 1.18 1.23 1.29 1.33 1.39 1.42 1.45 1.49 1.52 1.51 1.63 1.72 1.69 1.74 1.69 1.68 1.71 1.75 1.77 1.75 1.64 1.42 1.33 1.38 1.42 1.50 1.51 1.42 1.42 1.48 1.49 1.30 1.19 1.22 1.32 1.38 1.41 1.43 1.45 1.42 1.40 1.39 1.37 1.33 1.30 1.27 1.25 1.28 1.29 1.25 1.22 1.20 1.17 1.16 1.16 1.12 1.10 1.12 1.10 1.07 1.05 1.06 1.11 1.14 1.12 1.17 1.18 1.15 1.13 1.12 1.10 1.07
0.71 0.80 0.91 0.99 1.05 1.06 1.05 1.07 1.08 1.10 1.11 1.12 1.13 1.15 1.20 1.26 1.30 1.35 1.43 1.46 1.52 1.58 1.64 1.61 1.61 1.66 1.74 1.70 1.68 1.62 1.66 1.81 1.87 1.85 1.46 1.20 1.27 1.29 1.33 1.38 1.33 1.28 1.28 1.28 1.26 1.16 1.19 1.30 1.32 1.31 1.33 1.37 1.39 1.41 1.41 1.40 1.34 1.27 1.24 1.24 1.27 1.30 1.29 1.26 1.24 1.21 1.22 1.23 1.22 1.19 1.15 1.12 1.10 1.13 1.16 1.19 1.19 1.18 1.18 1.21 1.35 1.33 1.28 1.06 1.03
0.71 0.80 0.87 0.89 0.97 1.02 1.03 1.05 1.07 1.10 1.13 1.14 1.15 1.17 1.18 1.22 1.25 1.32 1.39 1.45 1.53 1.60 1.62 1.59 1.63 1.68 1.74 1.62 1.59 1.61 1.64 1.66 1.69 1.82 1.56 1.22 1.17 1.17 1.25 1.26 1.32 1.26 1.22 1.24 1.19 1.11 1.10 1.21 1.27 1.29 1.32 1.37 1.41 1.44 1.47 1.45 1.39 1.30 1.28 1.28 1.28 1.30 1.31 1.29 1.29 1.30 1.28 1.28 1.27 1.23 1.21 1.21 1.22 1.24 1.24 1.27 1.29 1.25 1.22 1.16 1.16 1.14 1.15 1.06 0.92
0.64 0.75 0.85 0.92 0.95 0.95 0.98 1.02 1.05 1.08 1.08 1.09 1.13 1.18 1.22 1.26 1.30 1.34 1.38 1.43 1.54 1.59 1.60 1.63 1.72 1.78 1.76 1.70 1.64 1.65 1.72 1.70 1.76 1.93 1.69 1.40 1.18 1.09 1.12 1.21 1.25 1.15 1.16 1.16 1.11 1.03 1.01 1.10 1.20 1.24 1.28 1.34 1.37 1.38 1.43 1.44 1.35 1.30 1.30 1.30 1.29 1.30 1.31 1.30 1.30 1.34 1.35 1.38 1.42 1.34 1.27 1.28 1.28 1.30 1.32 1.28 1.24 1.23 1.19 1.15 1.16 1.14 1.07 0.98 0.92
0.63 0.70 0.82 0.84 0.87 0.94 0.99 1.03 1.04 1.05 1.05 1.06 1.10 1.15 1.19 1.20 1.24 1.30 1.34 1.43 1.52 1.57 1.62 1.67 1.73 1.72 1.75 1.78 1.79 1.79 1.74 1.68 1.67 1.77 1.64 1.37 1.23 1.13 1.10 1.07 1.08 1.08 1.10 1.10 1.13 1.10 1.04 1.04 1.11 1.22 1.27 1.32 1.34 1.39 1.43 1.41 1.36 1.32 1.32 1.31 1.31 1.28 1.30 1.31 1.31 1.35 1.38 1.37 1.34 1.38 1.32 1.24 1.27 1.29 1.40 1.45 1.44 1.42 1.38 1.29 1.23 1.17 1.09 0.98 0.89
0.65 0.67 0.80 0.84 0.86 0.90 0.96 0.99 1.01 1.02 1.05 1.07 1.11 1.16 1.21 1.23 1.27 1.32 1.36 1.44 1.52 1.57 1.64 1.67 1.73 1.70 1.75 1.77 1.78 1.79 1.80 1.78 1.75 1.78 1.71 1.53 1.42 1.27 1.11 1.09 1.06 1.06 1.07 1.08 1.11 1.08 1.06 1.12 1.15 1.21 1.28 1.29 1.29 1.33 1.39 1.40 1.35 1.32 1.32 1.35 1.35 1.33 1.31 1.32 1.35 1.33 1.29 1.30 1.36 1.41 1.42 1.47 1.52 1.51 1.50 1.39 1.37 1.44 1.41 1.37 1.38 1.34 1.24 1.12 0.95
0.67 0.69 0.76 0.84 0.82 0.86 0.90 0.92 0.95 1.01 1.08 1.13 1.15 1.19 1.21 1.23 1.30 1.34 1.41 1.50 1.53 1.58 1.62 1.65 1.76 1.66 1.60 1.57 1.58 1.60 1.61 1.64 1.66 1.63 1.65 1.66 1.60 1.44 1.26 1.19 1.14 1.10 1.10 1.11 1.11 1.11 1.10 1.11 1.16 1.19 1.23 1.28 1.26 1.30 1.35 1.36 1.33 1.33 1.35 1.38 1.41 1.40 1.39 1.37 1.35 1.31 1.33 1.42 1.41 1.35 1.31 1.36 1.36 1.37 1.43 1.44 1.48 1.51 1.43 1.37 1.37 1.35 1.30 1.23 1.11
0.78 0.81 0.82 0.85 0.85 0.89 0.93 0.97 1.04 1.11 1.15 1.18 1.22 1.21 1.20 1.27 1.34 1.41 1.48 1.49 1.52 1.57 1.61 1.63 1.65 1.62 1.61 1.60 1.56 1.55 1.58 1.57 1.57 1.63 1.65 1.62 1.53 1.46 1.36 1.29 1.25 1.21 1.19 1.15 1.11 1.14 1.16 1.20 1.17 1.16 1.22 1.28 1.27 1.32 1.38 1.34 1.34 1.38 1.40 1.41 1.41 1.42 1.43 1.39 1.38 1.41 1.45 1.44 1.44 1.41 1.39 1.40 1.43 1.46 1.51 1.53 1.49 1.43 1.47 1.49 1.43 1.41 1.34 1.25 1.14
0.82 0.85 0.84 0.91 0.94 0.97 0.99 1.03 1.09 1.16 1.21 1.28 1.31 1.30 1.35 1.42 1.43 1.46 1.44 1.47 1.46 1.50 1.55 1.57 1.58 1.57 1.59 1.62 1.61 1.58 1.51 1.49 1.49 1.49 1.51 1.51 1.51 1.45 1.40 1.34 1.31 1.29 1.25 1.21 1.19 1.18 1.20 1.25 1.24 1.23 1.31 1.33 1.31 1.36 1.39 1.39 1.42 1.44 1.41 1.38 1.36 1.34 1.36 1.39 1.38 1.39 1.43 1.44 1.46 1.45 1.41 1.39 1.41 1.48 1.54 1.51 1.48 1.45 1.45 1.50 1.50 1.40 1.34 1.31 1.22
0.81 0.90 0.90 0.90 0.91 0.94 0.99 1.05 1.06 1.12 1.21 1.26 1.28 1.34 1.43 1.45 1.46 1.42 1.42 1.42 1.43 1.46 1.50 1.53 1.53 1.56 1.58 1.58 1.55 1.48 1.42 1.40 1.43 1.43 1.43 1.45 1.46 1.47 1.44 1.40 1.33 1.27 1.25 1.25 1.24 1.23 1.22 1.29 1.33 1.33 1.38 1.31 1.31 1.33 1.38 1.41 1.45 1.42 1.34 1.29 1.34 1.37 1.38 1.41 1.43 1.43 1.43 1.44 1.46 1.47 1.45 1.43 1.45 1.50 1.54 1.52 1.51 1.47 1.42 1.37 1.32 1.31 1.28 1.19 1.10
0.80 0.87 0.96 0.95 0.92 0.91 0.94 1.00 1.10 1.15 1.17 1.23 1.27 1.37 1.38 1.40 1.43 1.34 1.32 1.33 1.33 1.35 1.37 1.39 1.37 1.36 1.37 1.41 1.39 1.38 1.40 1.45 1.45 1.43 1.41 1.41 1.43 1.44 1.41 1.41 1.38 1.38 1.38 1.34 1.30 1.25 1.25 1.31 1.37 1.33 1.34 1.33 1.36 1.38 1.44 1.45 1.43 1.36 1.25 1.26 1.32 1.37 1.38 1.40 1.46 1.48 1.49 1.51 1.51 1.46 1.43 1.43 1.44 1.49 1.49 1.49 1.45 1.42 1.36 1.30 1.24 1.23 1.20 1.12 1.06
0.85 0.90 0.95 0.98 0.98 0.99 1.03 1.05 1.10 1.15 1.16 1.18 1.23 1.26 1.24 1.23 1.22 1.17 1.17 1.20 1.21 1.21 1.23 1.27 1.27 1.28 1.31 1.35 1.39 1.41 1.42 1.45 1.44 1.45 1.43 1.44 1.44 1.44 1.45 1.49 1.44 1.41 1.39 1.35 1.31 1.29 1.32 1.36 1.41 1.36 1.37 1.35 1.33 1.35 1.42 1.43 1.37 1.30 1.23 1.24 1.27 1.30 1.32 1.36 1.43 1.48 1.45 1.44 1.44 1.45 1.44 1.44 1.49 1.51 1.50 1.48 1.43 1.35 1.28 1.22 1.17 1.11 1.05 0.97 0.94
0.88 0.99 1.04 0.99 1.00 1.03 1.08 1.16 1.18 1.12 1.09 1.07 1.10 1.13 1.09 1.07 1.07 1.12 1.15 1.18 1.20 1.20 1.26 1.28 1.28 1.30 1.32 1.38 1.42 1.43 1.43 1.48 1.50 1.49 1.49 1.51 1.52 1.51 1.51 1.53 1.45 1.42 1.38 1.36 1.37 1.38 1.43 1.47 1.42 1.35 1.36 1.35 1.35 1.36 1.39 1.38 1.27 1.14 1.13 1.19 1.28 1.32 1.39 1.45 1.40 1.45 1.42 1.39 1.38 1.37 1.42 1.47 1.50 1.53 1.47 1.39 1.31 1.24 1.18 1.15 1.08 0.96 0.90 0.87 0.90
0.88 0.89 0.92 0.96 1.00 1.06 1.08 1.17 1.22 1.07 1.09 1.10 1.08 1.06 1.06 1.06 1.09 1.15 1.19 1.18 1.21 1.25 1.28 1.27 1.30 1.34 1.37 1.44 1.45 1.45 1.48 1.52 1.54 1.58 1.56 1.52 1.50 1.52 1.55 1.56 1.54 1.51 1.47 1.47 1.48 1.45 1.44 1.43 1.42 1.39 1.42 1.35 1.35 1.43 1.39 1.26 1.13 1.10 1.16 1.24 1.27 1.26 1.27 1.35 1.39 1.41 1.42 1.37 1.36 1.36 1.39 1.42 1.42 1.38 1.31 1.25 1.21 1.18 1.14 1.09 0.98 0.91 0.85 0.84 0.88
0.94 0.97 1.02 1.06 1.09 1.10 1.12 1.10 1.04 1.03 1.09 1.13 1.12 1.11 1.10 1.10 1.13 1.16 1.16 1.17 1.22 1.29 1.33 1.33 1.34 1.38 1.42 1.45 1.46 1.47 1.49 1.51 1.53 1.55 1.57 1.54 1.55 1.55 1.55 1.54 1.54 1.51 1.45 1.44 1.39 1.34 1.33 1.32 1.34 1.33 1.36 1.32 1.25 1.34 1.31 1.16 1.15 1.15 1.17 1.24 1.26 1.21 1.19 1.20 1.25 1.30 1.33 1.33 1.32 1.34 1.31 1.30 1.27 1.22 1.18 1.15 1.13 1.11 1.00 0.96 0.93 0.87 0.84 0.83 0.94
0.99 1.01 1.04 1.05 1.08 1.06 1.00 1.00 1.08 1.13 1.17 1.21 1.21 1.16 1.11 1.13 1.15 1.15 1.12 1.17 1.25 1.31 1.31 1.31 1.35 1.37 1.40 1.42 1.47 1.47 1.48 1.53 1.60 1.60 1.56 1.55 1.56 1.56 1.54 1.51 1.45 1.40 1.35 1.32 1.27 1.26 1.26 1.26 1.29 1.31 1.30 1.31 1.32 1.28 1.32 1.22 1.23 1.26 1.29 1.25 1.23 1.22 1.23 1.24 1.25 1.27 1.28 1.28 1.29 1.29 1.28 1.20 1.15 1.10 1.07 1.04 0.98 0.93 0.92 0.91 0.92 0.90 0.90 0.90 0.90
1.09 1.08 1.02 0.97 0.97 1.00 1.01 1.04 1.10 1.17 1.21 1.25 1.24 1.17 1.14 1.14 1.13 1.10 1.14 1.21 1.24 1.26 1.31 1.36 1.37 1.40 1.46 1.50 1.49 1.54 1.59 1.59 1.60 1.60 1.53 1.53 1.55 1.53 1.46 1.39 1.33 1.27 1.23 1.23 1.24 1.21 1.19 1.21 1.26 1.29 1.28 1.29 1.36 1.26 1.22 1.23 1.23 1.22 1.21 1.20 1.16 1.18 1.25 1.26 1.25 1.23 1.22 1.24 1.23 1.23 1.17 1.06 1.00 0.97 0.94 0.91 0.91 0.90 0.91 0.92 0.92 0.91 0.89 0.86 0.85
0.91 0.92 0.97 0.96 0.96 0.99 1.00 1.04 1.12 1.18 1.22 1.23 1.20 1.12 1.12 1.13 1.11 1.14 1.22 1.23 1.22 1.28 1.32 1.35 1.40 1.43 1.47 1.49 1.53 1.56 1.57 1.57 1.54 1.56 1.54 1.48 1.47 1.42 1.37 1.31 1.23 1.19 1.17 1.15 1.15 1.15 1.15 1.18 1.23 1.26 1.29 1.35 1.29 1.21 1.20 1.21 1.20 1.20 1.19 1.18 1.20 1.24 1.30 1.31 1.26 1.24 1.17 1.16 1.08 1.05 0.99 0.92 0.91 0.91 0.91 0.90 0.90 0.89 0.89 0.91 0.88 0.85 0.83 0.82 0.81
0.89 0.91 0.95 0.99 0.98 1.01 1.07 1.16 1.22 1.24 1.28 1.28 1.22 1.15 1.15 1.18 1.18 1.30 1.33 1.33 1.33 1.34 1.39 1.37 1.38 1.41 1.47 1.52 1.55 1.58 1.59 1.58 1.56 1.55 1.51 1.45 1.39 1.34 1.30 1.23 1.18 1.14 1.12 1.10 1.08 1.06 1.06 1.07 1.08 1.13 1.21 1.18 1.15 1.18 1.16 1.16 1.16 1.16 1.18 1.21 1.22 1.25 1.29 1.31 1.26 1.19 1.13 1.08 1.03 1.00 0.95 0.92 0.92 0.92 0.91 0.89 0.88 0.87 0.88 0.86 0.82 0.81 0.79 0.78 0.80
0.88 0.89 0.92 0.94 0.97 1.01 1.04 1.07 1.14 1.21 1.32 1.39 1.36 1.20 1.16 1.20 1.30 1.40 1.41 1.41 1.44 1.44 1.42 1.38 1.40 1.45 1.51 1.56 1.62 1.65 1.65 1.59 1.54 1.49 1.42 1.37 1.29 1.27 1.22 1.19 1.12 1.09 1.07 1.01 1.00 1.04 1.03 1.02 0.99 1.01 1.03 1.04 1.08 1.11 1.13 1.13 1.14 1.16 1.21 1.22 1.23 1.23 1.23 1.21 1.12 1.10 1.04 0.99 0.95 0.94 0.94 0.95 0.93 0.91 0.90 0.89 0.87 0.86 0.84 0.80 0.78 0.76 0.76 0.79 0.83
0.93 0.99 1.02 0.97 0.99 1.02 1.03 1.06 1.12 1.18 1.19 1.25 1.27 1.26 1.19 1.23 1.31 1.34 1.47 1.57 1.53 1.46 1.41 1.41 1.46 1.48 1.49 1.54 1.57 1.61 1.59 1.51 1.45 1.41 1.38 1.36 1.31 1.27 1.22 1.16 1.11 1.07 1.02 0.96 0.99 1.03 1.06 1.04 1.00 1.01 1.02 1.04 1.07 1.09 1.13 1.18 1.20 1.21 1.19 1.17 1.17 1.20 1.17 1.10 1.05 1.00 0.94 0.95 0.95 0.97 0.96 0.95 0.92 0.91 0.90 0.90 0.89 0.87 0.82 0.77 0.75 0.75 0.78 0.83 0.82
0.97 1.03 1.08 1.01 0.98 0.99 1.03 1.06 1.09 1.16 1.21 1.24 1.25 1.28 1.30 1.39 1.40 1.45 1.54 1.59 1.52 1.46 1.43 1.44 1.47 1.51 1.52 1.52 1.49 1.46 1.44 1.42 1.40 1.39 1.39 1.38 1.38 1.32 1.26 1.21 1.18 1.17 1.18 1.14 1.09 1.06 1.03 1.00 0.98 1.02 1.06 1.07 1.07 1.08 1.11 1.16 1.19 1.14 1.11 1.12 1.15 1.13 1.06 0.99 0.96 0.95 0.95 0.97 0.97 0.97 0.96 0.95 0.94 0.92 0.90 0.86 0.83 0.79 0.75 0.77 0.79 0.81 0.81 0.80 0.80
1.08 1.08 1.12 1.09 1.04 1.02 1.06 1.10 1.13 1.20 1.26 1.29 1.31 1.34 1.39 1.42 1.46 1.51 1.55 1.53 1.46 1.41 1.41 1.44 1.48 1.51 1.51 1.49 1.44 1.40 1.38 1.36 1.37 1.37 1.36 1.35 1.37 1.35 1.28 1.23 1.19 1.17 1.14 1.14 1.13 1.07 1.02 1.00 1.00 1.01 1.05 1.08 1.10 1.13 1.15 1.13 1.16 1.19 1.14 1.11 1.08 1.00 0.96 0.93 0.96 0.99 1.01 1.02 0.99 0.97 0.96 0.94 0.92 0.89 0.87 0.86 0.82 0.81 0.79 0.77 0.77 0.78 0.78 0.79 0.77
1.07 1.09 1.11 1.08 1.08 1.06 1.08 1.11 1.15 1.24 1.28 1.31 1.33 1.37 1.43 1.47 1.53 1.55 1.55 1.47 1.44 1.44 1.47 1.48 1.48 1.48 1.46 1.46 1.41 1.38 1.35 1.32 1.32 1.35 1.39 1.39 1.39 1.36 1.33 1.31 1.36 1.33 1.27 1.20 1.17 1.14 1.08 1.06 1.07 1.09 0.99 0.96 1.03 1.07 1.10 1.15 1.14 1.11 1.06 1.00 1.00 0.99 0.97 0.97 0.95 0.99 1.00 1.02 1.01 0.96 0.92 0.91 0.90 0.87 0.82 0.76 0.75 0.76 0.78 0.79 0.79 0.79 0.75 0.74 0.74
1.14 1.13 1.13 1.13 1.12 1.11 1.10 1.12 1.18 1.25 1.27 1.29 1.32 1.36 1.42 1.47 1.48 1.50 1.51 1.45 1.43 1.43 1.45 1.45 1.46 1.44 1.40 1.38 1.35 1.31 1.30 1.30 1.30 1.30 1.29 1.29 1.31 1.32 1.32 1.28 1.23 1.22 1.21 1.22 1.21 1.20 1.18 1.12 0.99 1.02 1.09 1.04 1.02 1.11 1.13 1.06 1.02 1.00 0.99 0.97 0.97 0.96 0.95 0.96 0.96 1.00 1.00 0.96 0.94 0.91 0.87 0.84 0.83 0.79 0.73 0.71 0.71 0.72 0.72 0.72 0.74 0.74 0.73 0.71 0.68
1.17 1.14 1.13 1.14 1.15 1.17 1.15 1.15 1.20 1.25 1.25 1.27 1.30 1.34 1.37 1.42 1.43 1.45 1.47 1.46 1.46 1.42 1.40 1.40 1.38 1.34 1.34 1.32 1.29 1.26 1.28 1.28 1.28 1.27 1.25 1.22 1.19 1.20 1.19 1.15 1.12 1.12 1.11 1.12 1.13 1.10 1.08 1.02 1.04 1.11 1.06 1.01 1.02 1.02 1.00 0.99 0.99 0.98 0.99 0.99 0.96 0.93 0.94 0.97 1.00 0.98 0.94 0.89 0.89 0.87 0.85 0.83 0.81 0.76 0.73 0.72 0.73 0.71 0.71 0.69 0.68 0.67 0.66 0.65 0.64
Wind_Speed
16 16 17 17 17 17 16 15 15 15 15 15 15 14 14 14 14 13 13 13 12 12 11 11 11 10 10 10 10 10 9 9 9 9 9 9 9 9 10 10 10 10 10 10 10 10 10 10 10 9 9 9 10 10 10 11 11 11 11 11 10 10 10 10 10 10 10 10 10 10 10 9 9 8 8 8 8 7 8 7 7 7 8 8 8
16 16 17 17 18 18 17 16 16 16 16 16 15 15 15 15 14 14 14 13 13 13 12 11 11 10 10 10 10 10 9 9 9 9 9 9 9 9 10 10 10 10 10 10 10 10 10 10 10 9 9 10 10 11 11 11 11 11 10 10 10 10 10 10 10 10 10 10 10 11 11 9 9 8 8 8 8 8 8 8 7 7 8 8 9
16 16 17 18 18 18 17 17 17 16 16 16 16 16 15 15 15 14 15 14 14 13 13 12 12 11 10 10 9 9 9 9 9 9 9 9 9 9 10 10 10 10 10 10 9 9 9 9 9 9 10 11 11 11 11 10 10 10 10 10 10 10 9 9 10 10 10 10 10 10 10 9 9 8 8 8 8 9 9 8 7 8 8 9 9
17 17 17 17 18 18 18 18 17 17 17 17 17 16 16 15 15 15 15 14 14 14 13 13 12 12 11 10 10 9 9 9 9 10 10 10 9 10 10 10 10 10 10 10 10 9 9 9 9 10 10 11 11 11 11 10 10 10 10 10 10 10 9 9 9 9 9 9 9 9 9 9 8 7 8 8 8 8 8 8 8 8 9 10 10
18 18 18 18 19 19 19 18 18 18 18 18 17 17 16 16 16 15 15 15 15 14 14 14 13 12 12 11 10 10 11 10 10 10 10 10 10 10 10 10 10 10 10 10 10 10 9 9 9 10 10 10 11 10 10 10 10 10 9 9 9 10 9 9 9 8 8 8 8 9 8 8 7 8 8 8 8 8 8 8 9 9 9 10 10
19 19 19 19 19 19 20 19 19 19 19 18 18 17 17 16 16 16 15 15 15 15 15 14 13 13 12 11 11 11 11 11 10 10 9 9 9 9 9 9 9 10 10 10 10 9 9 9 9 9 10 10 10 10 10 10 10 9 9 9 9 9 9 9 9 9 8 8 8 8 8 8 8 8 9 8 8 8 9 9 9 10 10 10 10
19 19 20 20 20 20 20 20 20 20 19 19 18 18 18 17 17 16 16 16 16 16 15 14 13 13 13 12 12 12 12 11 10 9 9 9 9 9 9 9 9 9 9 9 9 9 9 8 9 9 9 9 9 9 9 9 9 9 9 9 9 9 9 9 9 9 9 9 8 8 8 8 9 8 8 9 9 9 9 9 9 10 11 11 11
20 20 20 20 20 20 20 20 20 20 20 19 19 19 19 18 18 17 17 17 17 16 16 15 14 13 13 13 13 12 12 10 9 9 9 9 9 8 8 8 8 8 8 8 8 8 8 8 9 9 9 9 9 9 9 9 9 9 9 9 9 9 9 9 9 9 10 9 9 8 8 8 9 8 8 9 10 10 9 9 10 11 12 12 12
20 20 21 21 20 20 20 20 20 21 20 19 19 19 19 19 19 18 17 17 17 17 16 15 14 14 13 13 13 12 11 10 10 9 10 9 9 8 8 8 8 8 8 8 8 8 9 9 9 10 9 9 9 9 9 9 9 9 9 9 9 9 9 10 10 10 10 10 9 9 9 9 9 9 9 9 10 10 10 10 11 12 12 12 12
20 20 20 20 20 20 20 20 21 21 21 20 20 20 19 20 19 19 18 17 16 16 16 16 15 14 14 13 13 12 11 10 10 10 9 9 9 8 8 8 8 8 9 9 9 9 10 10 10 10 9 9 9 9 9 9 9 9 9 9 9 9 9 10 10 10 10 10 10 10 10 10 10 10 10 10 10 10 10 11 11 12 12 13 13
20 21 21 21 20 20 20 20 20 21 21 21 21 20 20 20 20 19 18 17 17 17 16 16 16 15 14 14 13 13 12 11 11 10 10 9 9 9 9 8 8 9 9 9 10 10 10 10 10 10 10 10 9 9 9 9 9 9 9 9 9 9 9 10 10 10 11 11 11 11 11 11 11 11 11 11 11 11 11 11 12 12 13 14 14
21 21 21 21 20 20 20 20 20 20 21 22 22 21 21 21 20 20 19 18 17 17 17 16 16 15 15 15 14 13 13 12 11 11 10 10 9 9 9 9 9 9 9 9 9 9 10 10 10 10 10 10 10 10 10 10 10 9 9 10 10 10 10 10 11 11 12 12 12 12 12 12 12 12 12 12 12 12 12 12 13 13 13 14 14
22 21 21 21 21 20 20 20 20 20 21 22 22 22 22 21 21 21 20 19 18 18 18 17 16 16 16 15 14 14 14 13 12 12 11 11 10 10 9 9 9 9 9 9 9 10 10 11 11 11 11 11 11 11 10 10 10 10 10 10 10 10 11 11 12 12 13 13 13 13 14 14 14 13 13 13 13 13 13 13 14 13 14 15 16
22 22 22 22 22 21 21 21 20 20 20 21 22 22 22 21 22 21 21 20 19 19 18 18 17 17 16 16 15 14 14 14 13 13 12 11 11 11 10 10 9 10 10 10 10 11 11 12 12 12 12 12 12 12 12 12 12 12 12 12 12 12 12 12 13 13 14 14 14 15 15 15 15 14 14 14 14 14 14 14 14 14 15 16 17
22 22 22 23 23 22 21 21 20 20 21 21 22 23 22 21 22 22 21 21 20 19 18 18 17 17 17 16 15 15 14 14 14 13 13 13 12 11 11 11 11 11 11 11 11 12 12 13 13 13 13 13 13 13 13 13 13 13 13 13 13 14 14 14 14 14 15 15 16 16 16 16 15 15 15 15 15 15 15 15 15 16 16 17 18
21 21 22 23 23 22 22 22 21 21 21 21 21 22 23 22 22 22 22 21 21 20 19 18 17 17 17 17 16 15 15 15 15 14 14 13 13 12 12 12 12 12 12 12 12 12 13 13 13 14 14 14 14 14 14 14 14 14 14 15 15 15 16 16 16 16 16 17 17 17 17 17 16 16 16 16 15 15 15 16 16 17 17 17 18
20 20 21 22 22 22 23 23 22 22 21 22 21 22 23 23 23 23 22 22 21 20 19 18 18 18 18 18 17 17 17 16 16 16 15 15 14 13 13 13 14 13 13 13 13 13 14 14 14 14 15 15 16 16 15 15 15 15 16 16 16 17 17 17 17 17 17 17 17 18 17 17 17 17 16 16 16 16 16 16 17 17 18 18 19
19 19 20 21 22 23 23 23 23 22 22 22 22 22 22 23 23 23 23 22 22 21 20 19 19 19 18 18 19 18 18 18 18 17 17 16 16 15 15 15 15 15 15 15 15 15 15 15 15 15 15 16 17 17 17 17 16 16 17 17 18 18 18 18 18 18 18 18 18 18 17 17 17 17 17 16 16 17 17 17 17 18 18 19 20
19 19 20 21 22 23 23 23 23 22 22 22 22 22 22 22 23 23 23 23 22 21 20 20 19 19 19 19 19 19 19 19 19 19 18 18 18 17 17 16 16 16 17 17 17 17 17 16 16 16 16 17 18 18 18 18 18 18 18 18 19 19 19 19 19 18 18 18 18 18 18 17 17 17 17 17 17 17 17 18 18 18 19 20 20
19 20 20 21 23 24 24 24 23 22 22 22 22 22 23 22 22 23 23 23 23 22 21 20 20 19 19 20 20 20 20 20 19 20 20 20 19 19 18 18 18 19 18 18 18 19 19 18 18 18 18 18 18 19 19 19 20 20 20 20 20 19 19 19 19 19 18 18 19 19 18 18 18 18 18 18 18 18 19 19 19 20 20 21 21
19 19 21 22 23 24 25 24 24 22 22 22 22 22 22 22 22 23 23 23 22 22 21 20 20 19 20 20 21 20 20 20 20 21 21 21 21 20 20 20 20 20 20 20 20 20 21 21 20 19 19 19 20 20 20 20 21 21 21 21 21 20 20 19 19 19 19 19 19 19 19 19 18 18 18 19 19 19 20 20 20 21 21 21 22
19 19 20 21 23 24 25 24 24 23 22 23 23 22 22 22 22 22 23 23 22 21 21 20 19 19 20 20 21 21 21 21 21 21 21 21 22 22 21 21 22 22 22 22 21 21 22 23 22 21 21 22 22 22 22 22 22 22 22 22 21 21 21 20 20 20 20 20 20 20 19 19 19 19 19 19 20 20 21 21 21 21 22 23 23
19 20 20 21 22 23 24 24 24 23 23 23 23 23 22 22 22 22 22 23 22 21 20 20 20 20 20 21 21 21 21 21 21 21 20 21 22 22 22 23 23 23 22 22 22 22 23 24 24 24 24 24 24 24 25 24 24 24 23 22 22 22 22 21 21 21 21 20 20 20 20 19 19 19 19 20 21 21 21 22 22 22 23 24 25
18 20 21 21 23 23 23 23 23 22 23 24 24 23 22 21 21 22 22 22 22 21 20 21 22 22 21 22 22 22 22 22 21 20 19 20 21 21 22 23 24 24 23 23 23 24 25 26 27 26 26 26 25 25 26 26 25 25 24 24 23 23 23 22 22 22 21 21 21 21 21 20 20 20 20 20 22 22 22 22 23 23 24 25 26
18 19 21 22 23 23 23 23 22 22 23 24 24 24 22 21 22 22 21 21 21 21 21 21 22 23 23 22 22 22 22 22 21 20 20 20 19 19 21 23 25 26 26 26 27 28 29 30 29 28 27 26 25 25 25 26 26 25 25 25 24 23 23 23 23 22 22 22 21 21 22 22 21 21 21 21 22 23 23 23 24 24 25 26 26
17 18 20 21 22 22 23 23 22 23 23 24 24 24 23 22 22 22 21 21 21 21 21 21 22 23 23 22 22 22 23 24 23 23 23 22 20 19 20 23 25 26 26 27 28 29 29 29 28 27 27 25 24 24 24 25 25 25 26 25 25 24 24 24 24 23 23 23 22 22 23 23 23 22 22 23 23 24 24 24 24 25 25 26 27
17 17 18 20 21 22 23 23 23 23 23 23 24 24 24 23 24 23 22 21 21 21 21 22 22 23 23 23 22 23 24 25 26 27 27 26 24 22 23 24 24 24 24 25 27 27 27 25 23 22 23 22 22 23 24 24 24 25 26 26 26 25 25 25 25 24 24 23 24 23 24 24 24 24 24 24 25 25 25 25 25 25 26 27 28
18 18 19 21 22 23 23 23 23 23 23 23 23 23 24 24 24 24 23 23 22 21 22 22 23 22 22 22 23 23 23 23 25 27 28 27 26 26 26 25 24 24 24 25 26 27 25 23 21 21 21 22 24 24 25 25 25 25 26 27 27 26 26 25 25 25 24 24 24 24 24 24 24 24 25 26 26 26 26 26 27 28 28 29 30
19 20 22 22 22 23 23 23 23 23 23 23 23 23 23 23 24 24 24 24 23 22 22 22 22 21 21 21 21 21 21 21 22 23 25 26 28 27 26 26 26 26 25 26 26 26 24 23 23 22 22 24 26 26 25 25 26 26 26 27 27 27 26 26 26 25 25 25 25 25 25 25 26 26 27 28 28 28 28 29 29 30 30 31 32
21 22 24 24 24 23 23 23 23 23 23 23 23 23 23 23 23 24 24 23 23 22 21 20 20 20 21 21 21 22 24 23 23 23 25 27 28 27 26 27 27 26 25 25 25 24 23 24 24 23 23 24 26 26 25 25 26 26 27 26 26 27 27 26 26 26 26 26 26 26 26 26 27 27 27 29 29 30 31 32 31 31 31 32 33
23 24 25 26 26 25 24 23 24 24 24 24 24 23 23 23 23 23 23 23 22 21 20 19 19 19 20 21 22 24 25 25 24 24 25 26 27 27 27 27 26 25 25 25 24 24 24 24 24 24 24 25 26 26 25 25 26 27 27 26 26 26 27 27 27 27 27 27 27 27 27 27 26 27 28 30 31 32 33 33 32 32 33 33 33
22 24 25 27 27 26 25 25 25 25 25 24 24 24 24 23 22 21 21 21 21 20 20 20 19 19 20 21 22 23 24 25 25 24 25 25 26 27 27 27 27 26 26 26 25 25 24 24 25 26 26 27 26 26 26 26 26 26 26 26 26 26 27 27 27 27 27 27 27 28 28 28 28 29 30 31 31 31 32 31 31 32 33 34 34
21 22 24 27 27 26 25 24 24 24 24 24 24 23 23 22 21 20 20 20 20 19 19 19 19 20 21 21 22 22 23 24 24 25 25 25 25 26 26 27 27 27 27 26 26 25 24 25 25 26 27 27 26 25 25 25 25 24 24 24 25 25 26 26 26 26 27 27 28 28 29 29 30 30 30 30 30 30 30 29 30 32 34 34 34
21 22 23 26 27 26 25 25 24 24 24 23 23 22 22 21 21 20 20 20 19 19 18 18 19 20 21 22 22 23 23 24 24 25 24 24 24 25 26 26 27 27 27 27 26 25 25 26 26 27 27 27 25 25 24 24 24 23 23 23 23 24 25 25 26 26 26 26 27 28 29 30 29 29 29 29 29 29 29 29 32 34 34 34 34
22 22 23 25 26 26 25 25 25 24 23 23 22 22 21 21 21 21 21 20 20 19 19 20 21 22 22 22 22 23 23 23 24 24 24 24 25 25 25 26 27 27 27 27 27 26 26 26 26 26 27 26 25 24 24 24 23 23 23 23 23 23 24 24 25 25 26 26 28 28 29 29 29 29 29 29 29 29 31 32 34 35 35 35 34
24 24 24 24 25 25 26 27 26 25 24 23 22 22 22 21 21 21 21 21 20 21 21 22 23 23 23 23 23 23 23 23 23 24 24 24 25 25 25 25 25 26 27 27 27 27 27 26 26 25 25 25 23 22 23 23 22 22 22 22 22 23 23 24 24 25 26 27 28 29 29 29 30 30 30 30 31 32 33 34 34 35 35 35 34
24 24 25 25 26 26 27 27 26 26 25 23 23 22 22 21 21 21 21 21 21 22 23 24 24 24 24 23 23 23 23 23 23 24 24 24 24 24 24 24 25 26 27 28 28 27 26 25 25 24 24 23 22 21 21 21 20 20 21 22 23 23 22 22 23 24 25 27 28 29 30 30 31 31 31 31 33 34 34 35 35 35 34 34 34
25 24 25 26 27 27 27 27 27 26 25 24 23 22 21 21 22 22 22 22 22 22 23 24 25 24 23 23 23 23 23 23 23 24 24 24 24 24 24 24 25 26 27 28 27 26 24 23 23 23 22 22 21 20 20 20 20 20 21 22 22 22 22 23 25 26 27 29 30 31 31 32 31 31 31 32 34 34 34 35 35 34 34 35 35
26 26 25 26 26 26 26 27 27 26 25 24 23 22 22 22 23 23 23 23 23 23 23 24 24 23 23 22 22 23 23 23 24 24 24 24 24 25 25 25 26 28 28 27 25 24 22 22 22 22 22 21 20 20 20 21 21 22 22 22 21 21 23 26 27 28 29 30 31 31 31 31 31 31 32 33 34 34 34 34 34 34 34 34 34
26 26 25 25 25 25 25 26 26 24 24 24 23 23 23 23 24 24 24 24 23 23 23 22 22 22 22 22 22 22 23 24 24 24 24 24 25 26 26 27 28 28 27 25 24 23 22 22 22 21 21 20 20 19 20 21 21 21 21 21 21 22 24 26 27 28 29 30 30 30 29 29 30 31 31 32 33 33 33 33 33 33 33 34 34
25 25 24 24 24 24 24 25 24 23 23 23 23 23 24 24 24 24 24 23 23 22 22 22 21 21 21 22 23 24 25 25 25 25 24 25 26 27 27 28 27 25 23 23 23 22 22 21 20 19 19 18 18 18 19 20 20 20 21 22 23 25 26 27 28 29 29 29 28 28 27 28 29 30 31 31 32 32 32 32 32 32 33 33 33
23 23 22 22 22 22 23 23 24 23 23 23 24 24 24 24 24 24 23 23 23 22 22 21 21 21 22 23 25 26 25 25 25 26 26 26 27 27 26 25 24 23 22 22 22 21 21 20 19 19 18 18 18 19 19 20 21 22 23 24 25 27 28 28 29 28 28 27 26 27 27 28 29 29 30 30 31 31 31 31 31 32 32 33 33
21 21 20 21 21 22 22 23 23 23 24 24 24 23 23 23 24 24 24 23 23 23 22 22 22 23 24 24 25 26 26 26 26 26 27 27 27 26 24 23 23 22 21 20 20 19 19 19 19 19 19 19 19 20 21 21 21 22 23 24 26 27 27 27 26 26 25 25 26 27 28 28 28 29 30 30 30 30 30 30 31 31 32 32 32
20 20 20 20 21 21 22 22 22 22 23 23 23 23 23 24 24 24 24 24 23 23 23 23 24 24 24 25 26 26 26 26 26 27 27 26 24 23 23 22 21 20 19 18 18 18 18 18 18 19 19 19 20 21 22 21 21 22 23 24 26 26 25 25 25 25 25 26 27 28 28 28 29 29 29 30 30 30 30 30 30 31 31 31 30
20 20 20 20 21 21 21 20 20 21 21 21 22 22 23 23 23 23 24 24 23 23 23 24 24 25 25 26 26 27 27 27 26 25 24 23 22 21 21 20 19 18 17 17 17 18 18 18 19 20 20 21 21 21 21 21 22 22 24 24 24 24 24 24 25 26 27 27 27 27 28 28 28 29 29 29 30 30 30 29 29 30 29 29 28
19 19 19 19 20 20 20 20 20 20 20 20 21 21 22 23 23 23 24 25 24 23 23 23 24 24 25 25 25 26 26 25 24 22 21 21 20 20 19 18 17 17 18 18 18 18 19 19 20 21 21 21 21 21 21 22 22 23 23 23 23 23 23 24 25 26 27 27 27 27 27 27 28 28 29 29 29 28 28 28 28 28 27 27 26
18 18 18 18 19 19 19 19 19 19 19 20 20 21 22 22 22 23 23 24 23 23 23 23 24 24 24 24 24 24 23 22 21 20 20 20 19 19 19 18 18 18 19 19 19 19 19 20 21 21 21 22 22 22 22 22 22 22 22 22 22 23 24 25 26 26 27 27 27 26 27 27 28 28 28 27 27 27 27 27 26 26 25 25 25
18 18 18 18 18 18 18 19 19 19 19 20 20 20 20 21 21 22 23 23 23 23 24 24 24 24 24 23 22 22 21 20 20 20 19 19 20 19 19 18 18 19 19 19 20 20 20 21 21 21 21 22 22 22 22 22 22 22 23 22 22 23 25 26 26 26 26 26 25 26 26 26 26 26 26 26 26 26 25 25 24 24 24 24 24
17 18 18 18 18 18 19 19 19 19 19 19 19 19 20 20 21 21 22 23 23 23 24 24 23 23 22 22 21 21 21 20 20 20 20 20 20 19 19 19 19 19 19 20 20 20 20 20 21 21 21 21 22 22 22 22 22 23 23 23 23 24 25 25 25 25 25 24 25 25 26 26 26 25 25 25 25 24 23 23 22 22 23 23 23
17 18 18 19 19 20 20 21 20 19 19 19 19 19 20 20 21 22 22 23 23 23 23 22 22 21 21 21 21 21 21 21 21 21 21 21 20 20 20 20 20 21 21 21 20 20 20 20 21 21 21 21 22 23 23 22 22 22 22 23 24 24 25 25 24 24 24 25 25 26 26 26 25 25 25 24 23 22 22 21 22 22 22 22 22
18 18 19 20 20 21 21 20 19 19 19 19 19 20 20 21 21 22 22 22 22 22 22 21 20 20 20 20 20 20 20 20 21 21 21 21 21 20 20 21 21 21 21 21 21 21 21 21 21 21 21 22 23 22 22 22 22 22 23 24 24 24 24 24 24 24 25 26 26 26 26 25 24 24 23 22 21 21 21 21 22 22 22 21 20
Wind_Direction
204 202 202 202 203 205 206 209 211 213 215 216 217 217 217 216 216 217 217 216 218 219 219 220 221 222 224 225 226 231 234 236 238 240 242 247 250 251 254 257 261 264 267 271 275 274 272 273 276 278 278 282 289 293 296 301 304 304 302 300 298 296 295 295 297 300 302 303 303 305 307 307 309 312 314 316 318 320 322 323 321 321 321 320 320
205 205 206 206 207 208 209 211 213 214 217 219 220 220 220 219 220 220 218 218 220 220 220 221 221 221 224 228 228 232 235 236 240 242 243 245 249 255 257 257 261 264 266 271 274 272 270 272 275 276 277 283 289 293 297 300 301 299 297 296 295 292 293 294 296 298 301 304 305 305 303 301 303 306 308 311 313 314 317 321 324 325 326 323 320
206 207 210 211 212 213 214 216 217 218 219 221 222 222 221 222 223 221 220 221 221 221 221 221 223 223 226 231 229 230 237 240 242 244 246 245 249 258 258 256 259 261 263 270 271 269 270 273 275 275 276 283 290 294 296 297 297 296 292 291 291 290 291 292 293 295 299 304 304 303 304 302 302 302 305 310 310 310 312 315 321 324 326 326 324
210 210 213 216 217 218 219 221 222 222 222 223 223 222 222 223 223 222 221 222 222 222 221 221 224 225 226 230 230 234 241 244 246 248 247 249 255 258 258 257 257 258 263 268 269 270 272 272 275 278 280 285 291 293 294 295 296 294 289 287 287 288 290 291 292 294 297 300 301 303 305 305 306 305 306 308 308 308 309 312 318 321 323 324 323
215 215 217 219 219 221 222 223 224 224 224 224 224 223 222 223 222 221 221 222 222 222 221 222 224 225 226 230 234 239 242 244 249 250 248 251 256 255 255 256 255 258 263 266 268 271 271 271 278 285 287 288 291 293 295 296 296 293 290 288 286 287 290 291 292 294 295 296 299 303 305 306 313 314 310 308 306 305 304 308 314 316 319 322 321
219 219 221 222 222 223 223 223 224 224 224 225 225 224 223 222 220 220 220 222 223 222 220 222 224 226 228 231 235 238 241 244 249 249 248 250 252 252 255 257 257 261 265 266 269 270 271 275 282 290 292 290 290 293 295 297 296 293 290 290 288 288 289 290 290 290 292 294 294 298 302 305 312 315 312 308 304 303 302 303 310 314 315 317 318
223 223 224 224 223 224 224 224 224 224 224 225 225 224 222 221 219 218 220 222 224 223 221 222 224 227 229 233 238 240 244 247 246 245 246 250 253 255 259 260 261 265 266 267 269 271 273 279 285 290 293 293 292 293 294 295 294 293 292 290 288 288 288 288 288 287 288 291 291 293 298 301 307 312 312 308 303 304 303 301 306 312 312 312 314
225 224 225 225 224 224 224 224 224 224 224 224 224 223 222 221 220 220 221 224 224 223 222 222 224 228 230 236 239 241 244 245 243 243 246 250 254 258 261 264 266 268 269 269 271 274 276 280 287 292 293 292 293 292 292 293 293 291 289 286 285 286 287 287 289 289 289 290 290 292 296 299 304 308 308 306 303 302 301 299 304 309 309 309 311
226 225 225 225 225 224 224 223 223 223 223 222 222 222 222 222 222 221 222 223 222 222 223 223 225 228 230 235 236 237 239 240 242 246 247 248 251 256 261 265 269 271 271 272 274 276 278 283 290 293 291 289 291 290 288 290 289 285 284 282 281 282 284 286 287 288 290 290 290 290 294 297 299 302 304 302 300 299 300 301 304 305 305 307 308
225 225 224 225 225 224 224 223 221 221 221 220 221 221 222 222 222 222 221 222 221 221 223 224 225 228 230 232 232 233 236 239 243 245 244 246 249 254 259 264 268 270 271 272 273 275 278 284 288 289 288 286 287 287 286 288 286 281 280 278 278 278 280 282 285 287 290 290 290 289 291 294 295 297 299 298 297 297 298 299 302 304 305 306 306
223 224 224 224 224 223 222 222 221 221 220 219 220 220 220 221 222 222 222 221 221 222 224 225 226 228 230 232 232 234 237 239 241 241 241 244 248 252 257 262 266 268 270 272 273 275 278 282 283 284 284 283 284 285 285 286 284 281 278 277 277 277 278 280 283 287 289 289 290 289 289 291 292 293 294 295 295 295 297 298 302 306 307 306 305
222 223 224 223 222 220 220 220 220 220 220 220 219 219 219 220 221 222 223 222 223 223 225 226 228 230 231 232 233 236 238 239 239 239 241 243 246 252 256 260 264 266 269 271 273 275 277 279 279 279 281 281 281 284 284 284 283 280 277 276 277 278 278 279 281 284 286 287 288 288 288 289 289 289 290 291 292 292 294 295 298 303 305 305 306
221 222 223 222 221 220 219 219 219 219 220 220 220 219 219 220 220 222 223 223 224 225 226 227 229 231 231 232 234 236 238 239 238 239 242 245 247 252 256 260 264 267 268 271 272 274 276 277 277 277 278 279 279 281 283 281 280 278 275 274 275 277 277 277 278 281 284 285 287 287 288 288 287 286 287 288 289 290 291 292 295 298 300 302 306
221 221 221 222 222 221 221 221 220 220 220 220 220 220 220 221 221 223 223 223 224 226 227 228 229 230 231 232 234 236 237 237 238 239 242 245 248 252 257 261 264 268 270 274 275 275 277 278 278 277 277 277 277 278 281 280 278 276 274 273 273 274 275 275 277 279 281 283 284 285 286 287 286 285 286 286 286 288 290 292 294 294 295 299 302
219 220 220 221 221 222 222 222 222 222 221 221 222 221 221 221 222 223 223 223 225 227 228 229 230 229 231 233 235 236 237 237 238 240 242 246 250 254 259 262 266 270 273 277 280 279 280 280 279 278 276 276 276 277 279 280 279 275 273 273 274 275 275 276 277 278 279 281 281 282 283 285 285 284 284 284 284 286 288 290 292 292 294 296 299
219 219 218 218 219 221 222 222 222 223 223 223 223 223 222 222 222 223 223 224 226 228 228 230 231 231 233 235 236 238 239 239 240 242 244 248 253 257 261 264 268 272 275 278 280 280 282 281 279 278 276 275 275 276 278 280 279 277 275 275 276 277 277 277 278 279 279 280 281 281 281 282 284 283 282 282 282 283 286 288 289 291 293 295 297
219 218 216 215 217 220 222 223 224 223 223 223 223 223 223 222 223 223 224 225 227 228 230 232 233 233 235 236 237 239 240 241 243 245 246 250 255 259 263 266 269 273 276 278 279 281 282 281 280 278 275 274 273 274 277 278 278 278 277 277 278 278 279 279 279 278 279 280 280 281 280 280 281 281 281 280 281 283 285 287 288 288 291 293 296
218 218 216 216 218 221 223 224 224 224 223 223 224 224 223 223 224 225 226 227 228 229 231 233 234 235 237 238 239 241 242 243 246 247 248 251 255 259 263 267 270 273 276 278 279 281 282 282 282 281 277 274 273 273 274 276 277 279 279 279 279 279 279 279 278 278 279 279 280 280 280 279 280 280 280 280 282 284 285 286 288 288 290 292 294
221 220 218 217 219 221 222 224 225 224 224 224 223 224 224 224 225 226 228 228 228 230 232 234 235 238 241 241 242 243 244 245 247 249 250 252 255 258 262 265 269 273 275 277 279 280 280 280 281 282 280 276 274 273 273 275 277 278 279 279 280 279 278 277 276 277 278 278 279 279 279 278 278 279 279 280 282 284 286 288 289 290 291 292 294
223 224 222 221 221 221 221 223 225 225 225 224 223 224 224 225 225 226 227 227 227 229 231 233 235 239 242 242 244 245 245 245 247 249 251 253 256 259 262 265 268 272 275 275 277 278 278 278 279 281 281 277 275 274 274 276 278 278 278 277 278 279 277 276 275 275 276 277 278 278 278 277 277 278 279 280 282 284 286 289 291 292 292 292 294
223 224 225 224 223 221 221 222 224 225 226 224 223 223 224 224 224 224 225 225 225 227 230 233 235 238 241 244 246 247 247 248 249 250 252 254 258 261 263 266 268 272 274 275 277 277 277 278 279 279 280 277 274 274 276 278 279 279 277 276 275 276 275 274 275 275 275 276 277 277 277 276 276 277 279 281 282 284 286 289 290 291 291 292 292
223 225 225 224 224 223 221 220 222 224 225 224 223 223 223 224 223 223 223 223 224 226 228 232 234 237 241 245 248 249 250 251 251 252 253 255 259 261 263 266 268 270 273 275 276 277 278 279 279 279 280 279 275 274 276 278 279 279 277 275 274 272 271 271 273 274 274 275 276 276 276 275 276 277 278 281 283 284 286 288 290 291 292 292 291
227 228 228 226 225 224 221 220 221 223 222 222 223 223 223 223 222 221 221 221 223 225 228 232 234 238 242 246 250 252 251 251 252 253 254 255 259 262 263 268 270 271 273 276 277 279 281 282 280 279 281 281 278 276 276 276 278 278 277 275 273 271 269 268 269 271 273 275 275 275 275 276 276 277 278 281 284 285 286 288 290 292 292 292 292
233 232 231 229 225 222 221 221 222 223 221 220 222 223 223 223 222 221 220 221 222 225 229 234 237 240 244 249 253 254 252 253 253 252 253 256 261 263 266 271 274 273 274 277 280 283 285 284 281 279 279 279 277 276 276 276 276 276 276 275 273 271 269 268 268 270 271 273 274 274 275 276 277 278 279 282 284 284 286 288 290 292 293 293 293
235 234 232 230 225 222 221 221 223 224 222 220 220 222 221 221 220 220 221 221 223 227 231 236 240 243 248 253 256 256 255 254 252 251 251 256 261 267 273 279 279 275 274 278 282 284 285 283 280 278 276 276 275 274 276 278 277 275 275 274 272 270 269 268 267 268 270 271 273 274 275 276 277 278 279 282 283 284 286 287 289 292 294 294 294
237 235 232 228 224 221 219 220 223 224 222 220 221 221 220 220 220 220 222 223 226 231 234 238 243 246 250 254 257 259 258 254 253 253 253 256 261 268 280 288 287 280 276 279 282 284 285 284 282 280 276 274 274 275 276 277 276 275 275 273 271 269 268 268 267 267 268 270 272 274 275 277 277 278 279 281 283 284 286 287 289 292 295 295 295
239 235 229 223 219 217 217 220 223 223 222 221 221 221 220 222 222 222 224 227 230 233 236 240 244 248 251 253 256 260 260 257 257 256 254 255 260 267 280 290 293 288 283 283 285 284 284 284 284 283 278 273 274 278 280 279 278 277 276 274 271 268 267 267 267 267 268 269 272 274 276 277 278 278 278 280 282 284 286 287 289 292 295 296 296
237 233 226 219 216 216 218 221 223 223 223 222 221 221 222 224 226 227 229 231 233 236 238 242 246 249 252 254 257 260 260 261 262 258 253 254 259 267 277 284 290 292 288 286 288 288 284 281 280 282 280 277 278 281 282 280 279 278 276 275 272 268 266 266 266 267 268 270 272 274 277 279 278 278 278 280 281 283 284 287 289 291 294 296 297
234 231 224 219 219 218 219 221 223 222 222 220 220 222 224 226 227 229 232 234 236 239 241 244 247 249 253 257 259 260 261 266 268 262 257 257 262 269 275 279 285 291 291 289 290 289 284 279 279 281 283 282 282 283 282 279 278 277 276 275 273 269 267 266 265 266 268 270 273 275 277 279 279 279 280 282 283 283 284 287 288 290 294 296 296
233 231 225 222 221 219 220 221 222 221 221 220 222 224 226 227 228 230 233 236 237 238 241 244 247 250 254 258 260 262 264 267 270 268 263 261 264 269 273 277 281 287 291 292 292 289 284 280 280 282 284 285 284 284 282 279 277 277 276 275 272 270 268 267 265 265 268 271 274 276 278 280 281 280 281 284 285 284 284 286 288 289 293 295 295
231 229 225 223 221 220 221 222 222 221 221 221 223 225 226 227 229 231 233 235 236 237 241 244 248 251 254 258 262 264 264 266 268 267 265 263 264 267 271 275 279 283 288 291 290 288 286 283 282 284 286 286 285 282 280 279 277 276 276 275 273 270 269 268 265 265 268 272 274 277 279 282 283 281 282 286 286 284 285 285 286 288 292 295 296
228 226 224 222 220 220 223 223 221 221 222 223 225 226 227 228 229 231 232 233 235 238 241 243 246 250 254 259 263 263 263 265 265 265 266 265 265 266 269 273 277 281 285 287 286 286 286 285 284 285 286 286 284 281 279 279 277 275 275 276 274 272 270 268 265 265 269 273 276 279 281 283 283 282 283 286 286 286 286 285 284 287 291 294 296
227 225 223 221 220 221 223 222 220 220 222 224 225 227 229 230 230 231 231 232 235 238 240 242 245 251 256 260 262 262 262 265 266 268 269 268 267 267 269 272 277 280 282 283 284 284 285 286 285 286 287 286 283 280 279 278 277 274 274 275 275 274 272 269 266 267 270 273 276 279 282 284 285 284 285 286 287 288 288 285 284 288 291 293 295
229 227 224 220 219 221 222 220 219 221 222 224 225 228 230 230 230 231 231 233 235 237 240 243 248 255 260 262 263 263 264 266 268 270 270 269 270 271 271 273 276 280 281 283 284 284 285 286 286 286 288 286 282 278 277 278 276 272 271 272 274 276 275 271 269 269 271 273 276 281 283 284 285 286 287 288 288 288 288 286 286 289 292 294 296
229 226 222 219 218 219 220 219 219 221 222 223 225 227 228 229 230 231 231 233 236 239 243 247 252 258 263 264 265 265 265 267 268 270 270 270 273 274 274 275 278 281 282 284 285 286 286 286 286 285 286 286 282 277 275 276 274 270 270 271 273 277 276 271 270 272 272 275 278 282 283 284 286 286 287 288 289 289 289 288 287 289 293 295 296
227 225 222 220 218 218 219 219 220 221 222 222 222 224 226 227 229 230 232 235 240 245 249 252 256 261 264 265 266 265 266 267 269 270 271 272 274 277 278 278 280 283 284 285 287 287 286 286 285 284 284 284 281 276 274 274 272 270 270 271 274 279 277 272 271 273 274 276 279 281 282 284 286 285 285 287 289 289 289 289 290 292 294 296 296
227 226 223 220 219 219 220 220 219 219 220 220 220 222 225 227 229 231 234 238 243 249 254 257 260 264 265 265 265 265 265 267 269 271 272 273 275 277 279 281 282 284 285 286 287 287 286 285 284 283 282 282 280 276 273 271 271 270 272 274 277 278 277 273 272 274 276 278 280 281 283 285 286 285 285 286 287 288 289 290 292 294 294 295 295
225 226 223 220 220 220 219 219 218 218 219 219 220 222 226 230 233 235 237 242 247 251 255 260 263 265 265 264 264 264 265 267 270 272 273 275 276 276 278 281 284 285 286 286 287 287 285 284 283 281 280 280 279 276 272 270 271 273 275 277 277 276 275 275 276 278 280 280 280 281 283 285 285 285 286 287 288 289 291 292 293 294 294 294 295
224 224 222 220 220 220 220 219 218 217 217 219 222 224 229 233 236 237 239 244 249 253 256 261 264 264 264 264 264 264 265 268 272 274 275 276 276 276 278 281 283 286 286 286 286 285 284 283 283 281 278 278 278 276 272 271 273 275 276 277 277 276 278 279 279 281 282 282 282 284 284 284 285 286 287 288 289 291 292 292 293 294 294 294 295
222 221 219 218 219 219 219 218 216 216 217 221 224 228 233 236 237 238 241 245 250 253 257 261 263 262 263 263 264 266 268 270 273 274 276 277 277 277 278 281 284 286 285 284 284 283 281 282 282 280 278 278 278 276 274 274 276 276 276 276 277 280 283 283 282 283 284 285 285 285 285 285 286 287 288 289 290 291 293 293 294 294 294 295 295
217 216 216 216 216 216 215 216 216 218 220 222 226 231 234 236 238 240 243 246 250 254 257 258 260 261 262 263 265 268 271 273 274 275 277 277 277 278 280 281 283 284 283 281 281 279 278 279 280 278 278 278 278 277 277 277 276 275 276 277 279 282 285 285 284 285 286 286 285 285 286 286 287 288 290 290 292 293 294 294 294 294 295 295 295
212 213 214 215 215 214 215 217 219 221 223 225 228 230 232 235 238 241 244 247 250 253 254 256 259 262 264 266 268 269 271 274 275 276 276 277 277 278 278 278 279 281 280 279 278 276 276 277 277 277 278 278 277 278 278 277 274 273 276 278 281 284 285 285 286 286 286 286 286 287 289 289 289 290 291 292 294 295 295 295 295 296 296 296 296
208 210 212 213 214 214 215 217 220 223 225 227 227 229 232 236 239 242 245 247 249 251 252 255 260 264 267 269 269 269 271 274 275 275 275 276 276 275 274 275 277 278 277 275 274 274 275 276 276 277 278 278 278 278 279 277 275 276 279 281 284 286 286 285 286 286 285 286 288 290 291 291 291 292 293 294 295 295 296 296 297 297 297 297 297
206 207 208 210 213 215 216 219 223 225 227 229 232 235 239 241 244 247 248 247 249 251 254 257 261 264 268 271 270 271 273 274 274 274 275 274 271 270 271 274 275 274 273 273 272 273 274 276 277 277 279 280 281 280 280 279 278 280 283 286 286 286 285 285 286 287 287 289 291 292 292 293 293 294 294 295 295 295 296 297 298 297 297 297 297
206 208 209 210 212 215 217 220 224 227 229 233 237 240 242 244 247 252 251 249 250 253 255 258 263 266 269 272 272 272 273 274 274 273 271 268 267 268 271 273 271 270 270 271 271 272 274 275 276 278 280 282 282 282 282 283 282 284 286 287 286 283 284 286 288 288 290 291 292 293 293 293 294 294 295 296 296 296 297 298 298 298 298 298 298
206 207 209 211 212 214 216 218 222 226 231 236 239 243 247 248 251 255 254 251 252 256 258 262 267 269 270 272 273 272 273 273 272 269 266 265 266 269 271 270 269 268 269 270 271 273 273 274 276 279 280 282 283 284 285 287 286 286 286 286 283 281 284 287 290 290 291 292 293 293 293 293 294 295 296 297 298 298 297 298 298 299 299 299 299
205 207 209 211 213 215 217 219 223 229 236 242 246 250 253 253 253 255 253 251 254 260 263 267 271 272 271 272 273 271 271 270 267 265 264 265 267 269 269 267 267 268 269 270 272 273 275 277 279 280 281 282 284 285 286 288 286 284 285 284 282 282 285 289 291 291 292 293 293 294 294 295 296 296 296 297 298 299 299 299 299 299 299 299 300
207 209 211 213 214 217 220 224 229 236 243 248 251 252 253 253 254 254 254 254 258 263 266 269 273 274 272 272 270 267 267 267 264 263 264 266 268 269 268 267 269 270 271 271 272 274 277 280 281 281 282 284 285 285 286 286 285 284 285 284 283 285 288 291 292 292 292 293 294 295 296 297 297 297 297 298 298 298 299 300 299 299 300 300 300
209 213 216 217 219 222 226 230 236 243 247 249 250 251 252 253 255 257 258 259 261 265 269 271 272 272 271 268 265 263 264 264 263 263 265 267 269 270 269 270 272 273 274 274 275 276 278 281 281 282 282 283 284 285 286 288 287 287 286 284 285 288 291 293 294 294 293 293 295 297 298 298 297 297 298 298 298 298 299 299 299 300 301 301 301
214 217 221 223 224 227 231 234 238 243 246 248 250 251 253 256 258 261 262 262 263 268 272 271 271 271 268 264 262 262 263 263 264 264 265 266 269 271 271 271 272 274 276 276 275 276 279 282 283 284 284 285 287 288 289 289 288 286 285 286 289 291 293 293 294 294 293 294 295 297 298 298 298 298 298 298 298 299 300 300 300 301 302 301 300
222 224 228 231 233 234 235 236 238 243 247 250 252 253 255 258 262 264 265 265 266 269 270 269 269 267 263 261 261 263 263 263 265 265 265 265 267 269 270 271 273 274 276 275 274 275 279 283 285 287 287 288 290 290 289 288 285 284 286 288 290 292 293 293 293 293 294 295 296 298 298 299 298 298 297 297 298 299 300 301 301 302 302 301 300